Theta_e
326 322 311 305 299 297 293 296 299 306 309 315 314 311 311 313 307 301 327 332 335 337 338 338 339 336 334 332 331 330 330 330 329 329 328 327 328 328 329 332 332 334 334 333 332 331 329 331 330
321 320 309 300 294 291 292 298 301 308 314 316 316 315 313 312 320 323 327 334 336 336 337 336 337 335 333 331 330 328 328 329 328 327 327 327 327 328 329 330 332 333 332 332 331 330 330 329 328
320 311 308 296 291 291 294 300 309 313 314 314 315 318 316 315 322 325 332 336 336 335 335 335 336 334 332 330 328 327 327 327 327 327 326 326 328 328 328 329 331 332 332 332 332 331 330 328 327
317 313 301 294 292 295 300 304 309 310 312 317 316 313 323 329 325 330 335 335 334 333 334 335 336 332 330 328 327 327 326 326 325 325 325 325 328 327 329 329 328 331 332 332 331 330 329 327 327
315 305 295 291 293 295 298 306 309 308 310 312 314 312 318 328 331 333 333 333 332 332 333 333 334 331 328 327 327 325 325 324 324 325 325 326 327 327 327 329 330 329 330 330 330 329 328 327 328
310 301 293 290 292 296 300 303 309 310 311 313 314 315 317 330 330 332 333 331 331 329 329 328 326 328 328 326 324 323 324 324 324 324 323 323 323 324 326 327 330 328 330 329 328 327 325 327 327
309 297 293 291 292 296 298 304 308 308 310 311 314 311 319 324 329 329 328 328 326 324 323 323 323 324 325 324 323 323 323 323 322 322 322 322 322 323 324 325 327 328 328 327 326 325 326 327 325
308 300 292 292 291 293 298 306 308 309 308 313 313 311 313 322 325 325 323 322 321 320 318 316 317 318 318 318 320 321 321 321 320 318 317 316 316 317 319 320 323 327 327 325 325 324 325 325 323
310 296 291 292 292 294 303 304 310 312 310 312 312 314 321 323 323 321 320 319 317 314 313 313 313 315 316 315 314 315 317 316 315 314 314 313 313 313 314 317 320 323 325 325 323 323 322 320 318
305 297 296 296 294 296 298 305 308 308 308 310 314 319 322 322 322 321 320 318 315 312 312 311 312 313 315 314 313 313 313 312 312 312 312 312 312 313 312 312 314 316 319 325 323 321 318 315 313
301 299 296 296 297 299 300 301 306 306 305 309 312 318 320 320 321 321 320 320 318 315 314 311 311 312 314 312 312 312 312 312 311 311 311 311 311 311 312 312 312 314 312 318 317 316 314 310 308
296 297 297 298 298 298 299 302 302 301 303 306 316 320 320 319 319 320 319 319 318 318 315 312 311 312 312 312 312 311 311 311 310 311 311 311 310 310 311 311 312 313 314 316 316 313 309 305 305
295 296 298 298 298 298 300 299 302 301 306 314 319 319 320 320 318 321 321 321 320 316 313 312 312 312 311 310 311 311 310 310 310 312 313 312 311 311 312 312 313 314 314 315 314 311 311 310 303
297 296 296 297 296 296 296 297 299 301 307 313 316 317 319 320 319 319 319 319 319 315 313 312 311 312 311 310 311 310 310 310 311 311 312 313 313 313 312 313 313 314 313 313 314 313 313 309 300
299 295 296 296 296 295 296 294 294 300 307 310 313 314 316 318 319 318 320 320 320 315 313 312 312 312 310 310 310 310 310 310 310 310 309 310 312 312 311 310 311 313 313 312 314 313 311 301 296
298 298 295 297 295 295 296 294 294 300 305 308 309 311 310 310 313 316 316 320 319 313 311 312 313 310 309 309 310 310 310 310 309 308 306 307 309 309 309 309 309 310 312 311 313 312 307 301 295
297 292 293 294 296 294 294 293 295 299 300 302 305 308 308 309 306 307 311 316 314 312 310 311 312 310 309 309 309 308 308 308 307 306 305 305 306 307 308 307 308 308 309 309 311 310 307 295 292
291 290 291 292 295 293 291 292 294 297 298 300 301 303 305 306 308 307 306 308 310 311 309 310 311 310 309 310 308 307 305 305 304 304 304 303 304 305 306 306 306 307 308 307 308 307 305 296 293
295 292 291 292 295 292 292 293 295 296 296 297 299 300 302 303 307 306 306 306 306 307 308 309 309 309 310 308 306 305 303 303 303 302 301 301 302 303 304 304 304 305 306 306 308 306 302 295 292
294 291 290 293 294 293 291 291 295 296 295 297 298 298 300 302 302 303 304 304 304 305 306 307 308 309 309 310 308 307 306 305 304 301 299 299 299 300 302 302 303 302 303 303 306 303 301 298 296
290 290 289 289 291 291 288 287 290 292 295 296 297 298 299 300 300 301 301 303 303 303 304 306 307 308 310 310 309 306 304 302 300 299 298 297 297 298 299 300 300 300 300 301 303 304 302 298 299
286 291 291 289 286 282 288 280 286 289 290 293 295 296 297 297 298 300 300 301 302 303 304 304 305 306 307 309 308 305 304 302 302 301 298 296 295 296 296 297 297 297 297 296 298 300 303 301 298
288 291 289 288 285 284 284 281 286 288 288 292 295 296 297 297 297 298 299 301 301 301 302 303 303 304 306 308 308 306 305 305 304 299 296 295 293 294 294 296 295 295 294 293 294 295 297 299 299
291 289 286 285 283 276 281 281 282 285 289 291 292 294 294 294 296 297 298 300 300 299 300 301 301 302 303 305 306 306 306 304 300 297 295 294 293 293 293 294 294 293 292 291 292 292 293 296 295
289 284 276 273 274 275 282 281 283 288 291 291 292 292 293 293 294 295 296 297 297 297 298 299 300 300 301 302 303 305 307 306 302 299 296 293 292 291 292 292 293 292 291 290 289 289 289 291 292
285 284 277 271 273 276 282 278 284 289 290 289 290 291 291 291 292 293 295 296 296 296 297 297 298 299 299 299 299 300 304 305 303 301 297 295 294 292 292 291 292 291 289 289 288 287 287 287 287
285 283 286 280 274 275 278 281 285 286 287 288 288 288 289 289 290 292 294 294 295 295 295 296 296 297 297 298 297 297 298 301 301 299 297 295 293 292 291 290 290 289 288 288 287 286 285 285 284
288 290 282 281 270 270 276 278 279 283 286 286 287 288 289 290 292 292 293 294 294 294 294 294 295 296 296 296 295 296 296 296 298 298 296 294 293 291 289 289 289 287 287 286 285 285 284 283 283
286 284 284 284 281 276 273 276 283 284 285 286 287 289 289 290 291 292 292 293 292 292 292 292 292 293 293 294 294 293 294 293 294 295 295 295 292 290 288 288 288 286 286 285 284 284 284 283 282
286 284 284 280 277 279 278 278 285 287 287 286 288 288 289 288 290 291 292 291 291 291 291 290 291 291 292 293 293 292 291 291 290 291 292 291 290 289 288 287 287 286 285 284 283 283 283 282 281
Wind_Speed
6 5 2 5 4 4 3 2 1 4 3 2 2 5 5 5 3 3 2 4 14 11 10 12 13 12 11 9 9 9 9 10 10 10 9 9 9 8 9 11 13 13 12 13 14 13 13 13 13
5 5 4 3 5 3 2 1 4 2 5 7 7 3 4 3 2 6 5 9 13 12 10 11 11 12 11 9 9 9 9 10 9 9 9 9 9 8 10 11 12 11 11 12 12 12 12 13 14
3 4 3 5 3 4 4 4 7 7 4 2 4 2 2 3 3 8 7 14 13 12 10 10 11 11 11 10 8 8 8 9 9 10 9 8 9 9 9 9 11 12 12 13 12 13 14 15 15
4 3 4 5 3 1 2 7 6 8 3 5 4 8 3 1 5 6 12 13 13 10 9 9 11 11 10 10 9 8 8 9 9 9 9 8 9 7 9 9 10 11 13 14 14 14 15 14 16
3 2 4 4 2 2 2 6 5 4 3 3 1 5 4 2 7 14 13 11 14 10 9 8 10 11 9 9 9 8 8 8 8 8 10 9 9 9 10 11 10 11 13 14 15 13 15 15 17
2 2 4 3 2 1 3 3 4 3 2 3 5 6 3 4 10 9 11 12 10 11 8 7 9 10 9 9 10 9 9 9 9 8 8 8 7 8 10 11 11 11 12 14 14 14 14 17 18
2 3 3 5 6 3 3 3 5 5 5 3 1 4 3 5 4 9 11 10 10 9 8 7 7 9 10 10 10 10 9 9 9 9 8 8 8 9 10 12 12 11 12 14 12 13 15 17 18
2 5 4 2 6 5 4 3 2 3 2 1 1 5 7 9 8 10 10 9 9 7 7 7 7 6 6 6 10 9 8 8 9 9 8 8 8 9 9 8 10 11 11 13 12 13 16 18 20
3 5 4 6 6 5 4 5 2 1 5 2 1 1 1 13 11 11 10 7 6 6 5 6 6 5 5 5 6 7 8 9 8 7 8 6 4 5 6 8 9 8 8 12 12 14 16 18 20
5 3 6 1 1 5 3 5 6 4 3 2 2 4 11 12 11 13 11 10 7 7 6 6 6 5 4 4 5 5 5 4 4 5 5 4 4 4 4 6 9 8 7 10 12 15 16 12 8
1 4 6 3 2 3 4 4 3 9 2 5 9 9 9 8 9 10 9 9 10 8 5 7 6 5 5 4 3 2 2 3 3 4 4 4 3 3 4 3 3 3 5 4 7 8 7 11 9
8 5 2 3 3 3 3 6 3 1 2 3 6 10 9 11 12 10 9 10 9 10 8 8 8 6 5 4 3 3 2 2 2 2 3 3 2 3 4 3 3 3 2 5 7 7 11 13 14
6 4 3 8 7 5 5 3 3 2 2 3 9 12 11 11 9 4 4 6 7 8 9 9 8 7 6 6 4 3 3 2 2 3 4 2 2 2 2 3 3 4 3 4 8 9 10 11 13
3 6 3 8 4 4 3 2 1 2 2 6 9 10 7 10 8 5 5 7 8 6 7 9 9 7 7 5 5 3 3 3 2 2 3 3 2 2 2 2 3 3 3 2 7 9 9 8 11
3 6 4 6 3 3 1 1 2 1 4 6 7 7 7 7 8 10 10 7 6 3 5 6 7 9 8 7 5 4 3 3 2 2 3 3 3 2 1 2 2 2 3 3 4 8 8 9 9
4 6 4 4 3 2 1 3 1 3 5 7 7 6 6 6 7 7 4 5 5 4 6 5 6 7 7 7 6 4 3 2 2 2 2 3 3 2 1 1 1 1 3 3 4 7 8 8 8
5 4 4 1 4 2 2 3 0 2 5 6 7 7 7 8 7 7 6 5 5 5 7 7 6 9 8 7 5 4 5 2 1 1 2 2 2 2 0 0 1 2 2 3 4 6 8 9 9
4 6 3 3 2 2 2 7 5 5 7 10 10 10 10 10 15 7 7 6 5 6 5 5 5 8 8 6 5 3 2 3 2 1 1 2 1 0 1 1 1 1 2 3 3 8 7 8 9
7 5 6 3 0 1 2 6 11 7 6 10 10 10 13 15 9 7 7 7 6 6 7 9 9 9 8 5 4 3 3 3 3 3 3 2 2 0 2 2 2 2 3 4 6 8 12 8 10
6 7 2 1 2 1 4 12 15 4 8 7 12 10 12 7 5 6 8 9 9 8 7 7 7 9 9 7 4 3 3 4 2 3 3 3 3 2 3 3 3 3 2 4 6 9 6 3 8
4 6 2 3 3 3 7 7 5 2 2 4 7 6 5 9 11 8 8 10 8 11 11 9 8 8 9 8 5 3 3 2 3 4 3 4 4 3 2 3 3 3 3 4 7 7 9 7 8
4 2 4 4 4 2 5 5 5 5 9 4 6 3 6 8 7 8 9 9 12 13 8 9 9 9 7 9 8 8 6 6 4 3 3 4 4 3 3 3 4 4 3 5 5 5 5 5 7
3 4 5 3 4 3 6 4 8 6 4 4 6 7 6 7 7 10 8 8 8 6 9 7 7 6 6 8 9 8 8 5 3 3 4 5 4 4 4 4 4 5 4 5 6 6 8 4 4
6 5 7 5 3 4 3 3 6 1 3 7 5 6 6 8 8 8 5 3 3 3 5 5 7 7 6 8 10 11 11 8 5 4 4 4 3 4 4 4 4 4 4 5 4 5 7 7 4
5 6 4 6 5 3 2 2 9 5 6 4 8 8 8 7 8 7 6 4 3 4 5 6 8 10 8 9 9 9 10 8 9 7 5 5 4 4 6 6 5 4 4 4 3 4 5 6 6
3 4 5 3 1 3 3 5 7 4 6 4 5 3 5 8 7 8 7 5 4 5 6 7 8 9 6 6 7 5 5 5 6 6 5 5 6 5 6 7 6 5 4 4 4 4 4 5 5
1 2 4 6 2 3 2 6 11 3 5 6 8 7 9 8 8 8 6 4 5 5 6 6 6 6 7 8 5 6 6 6 7 7 6 6 5 5 6 7 7 7 7 7 6 4 4 3 3
2 4 4 3 2 4 4 4 6 3 6 8 8 9 8 6 9 7 7 7 5 5 5 5 6 8 7 7 6 7 8 7 7 5 7 7 6 7 7 8 8 8 8 7 7 5 5 5 3
2 1 5 3 3 3 2 6 7 2 2 2 3 5 6 5 8 8 7 6 5 5 5 6 6 7 7 7 7 8 7 6 6 7 7 8 6 8 8 9 8 8 8 8 7 6 7 7 7
3 1 3 4 3 1 0 8 1 8 5 2 5 5 4 3 6 7 7 7 8 7 6 6 6 7 9 8 8 8 6 6 7 8 8 6 8 7 8 8 8 9 9 9 9 8 8 9 8
Wind_Direction
345 340 86 47 80 66 124 180 147 120 115 347 84 132 133 55 133 155 112 147 126 126 118 106 102 99 88 79 68 55 51 50 43 44 51 47 46 44 56 46 51 46 50 58 60 56 53 54 48
328 6 45 87 93 95 235 198 136 128 130 120 63 61 55 85 97 124 119 142 127 122 115 109 106 103 96 83 73 62 54 60 55 48 50 56 46 52 41 52 50 53 53 64 64 67 64 59 58
18 48 74 90 107 156 169 156 134 116 140 89 98 64 74 91 110 137 135 134 120 116 116 116 111 108 104 95 77 67 69 62 59 57 53 56 56 49 47 38 42 43 57 66 61 64 68 66 59
16 21 41 84 119 212 163 142 135 127 84 56 116 84 70 337 170 158 139 126 120 118 116 113 112 107 101 96 85 72 60 65 60 59 64 60 61 52 35 39 40 50 61 65 66 70 73 62 59
35 55 62 75 102 115 70 121 137 103 101 95 36 133 83 36 138 141 136 131 127 123 120 114 109 110 106 101 90 75 63 66 67 66 69 60 47 36 30 36 45 56 63 70 69 69 69 62 59
19 95 75 153 146 67 57 121 110 86 91 103 97 115 101 91 130 134 125 123 120 118 104 94 90 90 88 81 70 64 61 67 61 58 55 60 55 44 30 20 40 58 68 71 74 77 78 66 65
190 91 159 124 146 129 145 99 112 120 113 113 36 101 97 162 89 111 111 115 117 113 108 100 90 90 75 71 65 65 63 60 57 56 57 50 54 49 42 25 28 58 75 76 82 85 71 77 71
136 94 104 162 184 164 142 85 78 76 139 340 24 153 170 164 125 112 103 104 107 108 111 107 101 99 93 82 72 67 61 61 63 53 43 45 42 41 40 32 36 41 84 85 91 88 75 77 70
214 73 150 183 173 159 161 117 24 94 105 69 1 258 193 127 134 120 117 112 117 109 109 111 113 110 107 91 68 60 61 57 45 39 41 39 37 30 32 30 49 54 70 97 94 87 92 80 73
72 111 177 116 82 147 118 110 141 134 127 110 125 116 125 140 154 151 155 155 159 153 144 135 132 128 118 103 85 75 63 54 50 42 38 36 34 25 32 24 40 53 42 91 91 92 85 80 72
43 146 169 57 45 108 113 91 118 128 204 197 184 155 151 157 175 175 166 171 175 158 156 156 149 152 138 121 101 79 70 57 54 43 33 30 33 23 36 28 29 34 61 94 96 95 80 84 82
98 20 138 89 357 92 95 120 91 153 155 275 173 158 158 171 189 181 172 176 163 169 165 164 160 155 143 131 126 121 107 104 83 53 38 42 41 32 38 32 30 30 54 101 99 90 89 83 79
82 151 38 92 76 73 105 80 142 167 337 125 137 170 172 182 195 218 184 157 160 174 171 171 160 161 156 144 141 138 123 97 62 51 39 42 43 40 45 45 45 42 58 105 106 104 100 92 84
119 99 110 76 70 53 110 105 84 186 150 140 159 172 180 193 189 185 187 184 185 177 181 166 164 163 154 148 152 147 135 121 93 60 32 37 36 39 57 72 57 59 59 110 122 120 109 96 89
184 95 85 39 33 49 350 42 249 139 182 168 182 177 193 207 191 205 205 202 192 200 150 172 152 156 163 153 153 157 157 137 116 92 48 30 28 29 81 118 107 95 101 128 120 118 102 98 94
77 49 89 353 14 321 162 250 5 154 172 212 211 203 202 224 217 223 196 185 180 153 173 161 158 157 162 159 158 159 156 160 154 138 113 62 48 31 25 43 58 4 115 142 135 138 118 105 97
10 126 105 93 29 351 63 244 134 170 179 231 250 246 230 240 238 228 204 187 185 174 175 178 171 167 157 148 156 158 154 170 175 180 149 98 78 39 60 342 319 312 126 139 144 130 130 121 110
155 119 65 148 327 37 264 258 243 198 198 223 225 238 247 245 244 230 217 207 195 188 173 177 179 168 154 141 132 135 165 166 188 216 247 131 77 354 202 207 214 249 174 159 142 135 129 127 123
109 96 123 169 268 231 282 288 277 226 206 234 234 226 234 236 244 217 216 213 210 206 195 189 185 170 158 148 157 176 212 183 198 208 213 191 162 227 249 249 236 223 209 193 163 147 141 127 133
85 112 71 133 51 105 355 284 272 220 232 220 237 236 237 241 231 215 207 204 208 214 210 211 197 180 180 177 175 168 174 191 175 177 202 209 177 184 245 240 238 241 209 200 181 156 148 124 188
40 110 118 82 12 45 321 305 332 351 309 280 260 249 241 239 249 232 221 218 213 213 203 206 204 190 194 188 154 120 110 118 169 202 202 208 195 177 212 255 253 248 222 215 200 184 185 166 204
83 108 93 73 58 324 7 283 324 347 327 324 328 302 267 264 265 255 225 213 212 222 200 203 200 199 192 183 187 194 193 200 205 185 179 189 199 186 192 217 217 230 226 222 220 221 217 187 191
123 86 76 68 79 54 5 63 276 2 2 8 26 35 352 318 288 276 247 234 220 193 202 205 201 208 195 201 204 204 216 209 184 170 179 193 205 208 203 217 216 220 217 222 218 213 219 204 186
152 71 53 56 51 41 316 104 291 264 9 310 305 27 355 330 324 315 307 251 213 190 195 190 199 214 198 202 208 211 215 206 185 189 198 204 199 209 212 221 229 235 232 229 233 246 242 230 225
62 59 3 5 18 204 162 63 248 273 292 263 317 335 335 339 348 346 341 317 269 224 220 210 203 220 201 208 212 217 228 219 217 203 196 186 208 214 219 208 213 225 228 220 211 210 231 231 230
67 127 137 224 291 278 118 240 248 161 330 2 40 7 2 3 352 357 344 312 284 253 232 216 216 231 209 211 218 221 237 230 223 206 194 203 209 217 180 202 206 219 217 216 213 210 207 214 225
177 80 136 108 77 54 239 283 305 94 70 40 10 37 21 9 0 352 343 321 303 273 252 238 237 238 222 224 217 222 228 228 223 209 210 207 201 210 188 195 192 194 200 204 196 210 208 197 188
85 148 76 13 65 289 286 272 244 355 36 3 16 19 4 359 356 355 340 329 317 285 282 261 248 245 236 228 218 224 222 225 238 221 217 215 212 195 182 191 200 195 197 201 193 193 190 184 183
74 70 54 103 161 211 299 264 212 203 167 68 350 319 326 349 341 340 325 303 294 309 295 278 268 258 246 232 237 236 233 222 226 229 234 228 219 197 193 196 194 198 198 199 198 198 188 194 185
70 160 143 143 239 284 149 258 108 199 179 183 277 257 338 299 287 290 307 323 320 304 291 272 260 259 254 244 232 230 224 215 220 228 228 217 220 202 200 193 197 199 198 191 198 199 197 202 201